Regional Weather Roundup
Issued by NWS

Home | Current Version | Previous Version | Text Only | Print | Product List | Glossary On
Versions: 1 2 3 4 5 6 7 8 9 10 11 12 13 14 15 16 17 18 19 20 21 22 23 24 25 26 27 28 29 30 31 32 33 34 35 36 37 38 39 40 41 42 43 44 45 46 47 48 49 50
000
ASUS42 KKEY 192310
RWRKEY

FLORIDA REGIONAL WEATHER ROUNDUP FOR THE FLORIDA KEYS
NATIONAL WEATHER SERVICE KEY WEST FLORIDA
700 PM EDT THU OCT 19 2017

...SOUTH FLORIDA AND THE KEYS...

CITY           SKY/WX    TMP DP  RH WIND       PRES   REMARKS
FORT MYERS     CLEAR     81  72  74 E9        29.99R
SW REGIONAL AP PTCLDY    82  73  74 E16       30.00R
NAPLES         PTCLDY    83  72  69 E14       29.98R
MIAMI          CLOUDY    83  75  77 NE9       29.98R HX  90
WEST KENDALL   CLOUDY    79  74  84 NW6       29.98R
HOMESTEAD      PTCLDY    81  76  83 NE7       29.97R
MARATHON       MOCLDY    82  75  79 N9        29.96R
KEY WEST INTL  CLEAR     82  74  76 NE7       29.96S

...INTERNATIONAL WEATHER...

CITY           SKY/WX    TMP DP  RH WIND       PRES   REMARKS
NASSAU BAHAMAS PTCLDY    82  75  78 NE5       29.97R
CANCUN MEXICO  CLOUDY    81  77  89 NE3       29.92F
COZUMEL MEXICO MOCLDY    82  79  89 E3        29.89F HX  93

ADJACENT COASTAL WATERS...

STATION/POSITION TIME  SKY/WX   TEMP    WIND        PRES    WAVE
                                AIR SEA DIR/SP/G            HT/PER
                 (UTC)          (F)     (DEG/KT/KT) (MB)    (FT/S)
PULASKI SHOAL LI 2300            81      40/ 11/ 12 1015.1R
SAND KEY         2250            81                 1015.0S
LONG KEY         NOT AVBL
MOLASSES REEF    2300            82 84   70/ 15/ 16 1014.8R
FOWEY ROCKS      2300            82 83   40/ 17/ 18 1015.7R
Buoy 42097       2230               83                N/A     5/ 6

$$



USA.gov is the U.S. government's official web portal to all federal, state and local government web resources and services.